Find Starlink 34518

NORAD ID: 64480 Int'l Des: 2025-133 Owner: SPXS Country: US Constellation: starlink operational
LEOCIRCULAR

当前视图

正在加载3D地球...

About Starlink 34518

Starlink 34518 (NORAD 64480) is a starlink constellation satellite (v2 mini) launched Jun 23, 2025 by SPXS of US. It operates in LEO, CIRCULAR orbit with a mass of 575.00 kg.

即将过境

Passes for default location (London). Set your location on the main map for personalized predictions.

高度历史

Loading altitude history...

两行轨道根数

1 64480U 25133J 26263.79609647 .00017933 00000-0 54047-3 0 9999
2 64480 53.1564 288.1730 0003228 83.1687 276.9683 15.34405996 70931
Epoch: Sep 20, 2026 • Age: 21 hours

当前状态

高度 466.3 km
远地点 / 近地点 N/A
速度 7.63 km/s
星下点 -11.33°S, 131.97°W
发射日期 Jun 23, 2025
运行时间 1.2 years
类型 internet

技术详情

分类 Payload
质量 575.00 kg
干质量 530.00 kg
长度 0.30 m
跨度 29.00 m
形状 ? Box + pan
制造商 SPXS
平台类型 Starlink V2MO
阶段状态 In Orbit
所有者/国家 SPXS/US

Most Searched